Location: Hemaruka
(51.7801°N, 111.0917°W)
Time: 11:28:28
(UTC+00:00)

NOAA 15 - Pass Details

Date: 08 December 2023
Orbit: 797 x 810 km, 98.6° (Epoch: 02 March)

Event Time Altitude Azimuth Distance (km) Brightness Sun altitude
Rises 01:22:02 0° 145° (SE) 3,318 7.6 -18.5°
Reaches altitude 10° 01:24:26 10° 139° (SE) 2,389 6.8 -18.9°
Maximum altitude 01:29:29 49° 67° (ENE) 1,039 4.7 -19.7°
Drops below altitude 10° 01:34:34 10° 354° (N) 2,397 7.0 -20.4°
Sets 01:36:58 0° 349° (NNW) 3,330 7.8 -20.8°
